Regional Weather Roundup
Issued by NWS Albany, NY

Home | Current Version | Previous Version | Text Only | Print | Product List | Glossary On
Versions: 1 2 3 4 5 6 7 8 9 10 11 12 13 14 15 16 17 18 19 20 21 22 23 24 25 26 27 28 29 30 31 32 33 34 35 36 37 38 39 40 41 42 43 44 45 46 47 48 49 50
000
ASUS41 KALY 271710
RWRALY

NEW YORK STATE HOURLY WEATHER ROUNDUP
NATIONAL WEATHER SERVICE ALBANY NY
1200 PM EST FRI FEB 27 2015

NOTE: "FAIR" INDICATES FEW OR NO CLOUDS BELOW 12,000 FEET WITH NO
SIGNIFICANT WEATHER AND/OR NO OBSTRUCTIONS TO VISIBILITY.

NYZ032-033-038>043-046>054-057>066-NYZ062>081-271800-
EAST


CITY           SKY/WX    TMP DP  RH WIND       PRES   REMARKS
ALBANY         MOSUNNY   18  -2  41 W10       30.42S WCI   6
GLENS FALLS    SUNNY     15  -3  44 S3        30.40S
POUGHKEEPSIE   SUNNY     22  -2  35 NE7       30.40F WCI  13
NEWBURGH       SUNNY     18   3  53 VRB5      30.38F WCI  11
MONTGOMERY     SUNNY     21   0  39 CALM      30.36F
WHITE PLAINS   SUNNY     22   2  42 NW10      30.35F WCI  11
ISLIP          MOSUNNY   24   6  46 NW10      30.37S WCI  14
NEW YORK CITY  MOSUNNY   24   7  48 N5        30.39F WCI  18
$$

NYZ005>009-017-018-044>046-055-056-271800-
CENTRAL


CITY           SKY/WX    TMP DP  RH WIND       PRES   REMARKS
FULTON         PTSUNNY   14   3  61 W14       30.46R WCI  -1
SYRACUSE       PTSUNNY   16   4  61 W14       30.45R WCI   1
ROME           MIX PCPN  12   3  67 SW9       30.45R WCI   0
ELMIRA         MOSUNNY   16   0  49 NW7       30.41S WCI   6
BINGHAMTON     SUNNY     13  -2  51 W13       30.31S WCI  -2
MONTICELLO     SUNNY     16   0  48 NW9       30.31S WCI   4
$$

NYZ026>034-041>043-271800-
NORTH


CITY           SKY/WX    TMP DP  RH WIND       PRES   REMARKS
WATERTOWN      SUNNY     14   4  64 W10       30.45R WCI   1
FORT DRUM      NOT AVBL
MASSENA        SUNNY     12  -9  38 W12       30.43F WCI  -2
SARANAC LAKE   SUNNY     10 -10  40 SW6       30.23F WCI   0
PLATTSBURGH    MIX PCPN  11  -4  51 SE8       30.40R WCI  -1
$$

NYZ001>004-010>016-019>021-271800-
WEST


CITY           SKY/WX    TMP DP  RH WIND       PRES   REMARKS
NIAGARA FALLS  MOSUNNY    8  -2  63 W13       30.50R WCI  -8
BUFFALO        MOSUNNY    6  -1  73 SW13      30.50R WCI -10
DUNKIRK        SUNNY      8  -1  66 W9        30.54R WCI  -5
JAMESTOWN      SUNNY      7  -6  56 W7        30.40R WCI  -5
WELLSVILLE     SUNNY     11  -4  51 W9        30.32S WCI  -2
ROCHESTER      MOSUNNY   12  -1  56 W12       30.48R WCI  -2
PENN YAN       SUNNY     14  -2  49 NW9       30.42R WCI   2
$$

             KEY
       WCI = WIND CHILL INDEX
       VSB = VISIBILITY
       HX  = HEAT INDEX
$$


USA.gov is the U.S. government's official web portal to all federal, state and local government web resources and services.